Location: LDNL
(36.4545°S, 141.6685°E)
Time: 12:48:06
(UTC+10:00)

Vanguard 3 - Pass Details

Date: 02 February 2022
Orbit: 508 x 3258 km, 33.3° (Epoch: 25 May)

Event Time Altitude Azimuth Distance (km) Brightness Sun altitude
Rises 03:03:57 0° 266° (W) 4,263 - -33.6°
Reaches altitude 10° 03:06:19 10° 268° (W) 3,570 - -33.4°
Exits shadow 03:12:17 49° 285° (WNW) 2,307 9.0 -32.9°
Maximum altitude 03:16:02 71° 349° (N) 2,222 8.9 -32.6°
Drops below altitude 10° 03:32:56 10° 68° (ENE) 5,866 11.6 -31.0°
Sets 03:38:04 0° 69° (ENE) 7,089 12.1 -30.5°
